Location: Nitra
(0.0000°N, 18.0833°E)
Time: 20:46:28
(UTC+02:00)

A-11 Canister half - Pass Details

Date: 09 April 2023
Orbit: 1526 x 1682 km, 47.3° (Epoch: 08 June)

Event Time Altitude Azimuth Distance (km) Brightness Sun altitude
Rises 00:13:41 0° 278° (W) 4,727 - -78.4°
Reaches altitude 10° 00:18:52 10° 255° (WSW) 3,719 - -79.4°
Maximum altitude 00:23:16 14° 226° (SW) 3,385 - -80.1°
Drops below altitude 10° 00:27:42 10° 197° (SSW) 3,695 - -80.8°
Sets 00:32:53 0° 173° (S) 4,675 - -81.5°
